Date String (YYYY-MM-DD hh:mm:ss) UTC,Instrument flags,Ambient pressure (hPa),Sample flow (lpm),Bypass flow (lpm),Sample temperature (°C),Ambient temperature (°C),ASC tube jacket temperature (°C),LED temperature (°C),Box temperature (°C),Sample RH (%),Span deviation,Mass concentration (μg/m³),Mass concentration (μg/m³),Mass concentration (μg/m³)
DateTimeUTC,F1_M11,P_M11,Q1_M11,Q2_M11,T1_M11,T2_M11,T3_M11,T4_M11,T5_M11,U1_M11,ZSPAN_M11,X0_M11,X2_M11,X1_M11
2022-08-17 07:00:00,,0831.7,5.00,0.00,29.8,28.7,00.0,38.5,31.7,27.5,0000.0,0009.52,0004.69,0004.13
2022-08-17 07:01:00,,0831.7,5.00,0.00,29.8,28.7,00.0,38.5,31.7,27.7,0000.0,0008.78,0004.65,0004.12
2022-08-17 07:02:00,,0831.7,5.00,0.00,29.8,28.7,00.0,38.5,31.7,27.6,0000.0,0008.53,0004.63,0004.11
2022-08-17 07:03:00,,0831.8,4.98,0.00,29.8,28.8,00.0,38.5,31.7,27.6,0000.0,0008.45,0004.63,0004.11
2022-08-17 07:04:00,,0831.7,5.00,0.00,29.8,28.8,00.0,38.6,31.8,27.7,0000.0,0008.36,0004.63,0004.10
2022-08-17 07:05:00,,0831.7,5.01,0.00,29.8,28.8,00.0,38.6,31.7,27.8,0000.0,0008.39,0004.62,0004.10
2022-08-17 07:06:00,,0831.7,5.00,0.00,29.9,28.9,00.0,38.6,31.8,27.6,0000.0,0008.08,0004.63,0004.11
2022-08-17 07:07:00,,0831.7,4.99,0.00,29.9,28.9,00.0,38.6,31.8,27.5,0000.0,0007.78,0004.65,0004.11
2022-08-17 07:08:00,,0831.7,5.00,0.00,29.9,28.9,00.0,38.6,31.9,27.4,0000.0,0007.78,0004.64,0004.11
2022-08-17 07:09:00,,0831.7,5.00,0.00,29.9,28.9,00.0,38.6,31.9,27.4,0000.0,0007.77,0004.63,0004.10
2022-08-17 07:10:00,,0831.7,5.00,0.00,29.9,29.0,00.0,38.7,31.9,27.6,0000.0,0007.73,0004.61,0004.10
2022-08-17 07:11:00,,0831.7,5.00,0.00,30.0,29.0,00.0,38.7,31.9,27.5,0000.0,0008.06,0004.62,0004.11
2022-08-17 07:12:00,,0831.7,4.99,0.00,30.0,29.0,00.0,38.7,31.9,27.4,0000.0,0008.22,0004.63,0004.11
2022-08-17 07:13:00,,0831.7,5.00,0.00,30.0,29.0,00.0,38.7,31.9,27.3,0000.0,0008.38,0004.68,0004.11
2022-08-17 07:14:00,,0831.7,5.00,0.00,30.0,29.0,00.0,38.7,32.0,27.3,0000.0,0008.51,0004.68,0004.11
2022-08-17 07:15:00,,0831.7,5.01,0.00,30.0,29.1,00.0,38.7,32.0,27.2,0000.0,0008.61,0004.70,0004.12
2022-08-17 07:16:00,,0831.7,5.01,0.00,30.1,29.0,00.0,38.7,32.0,27.3,0000.0,0008.82,0004.74,0004.13
2022-08-17 07:17:00,,0831.7,5.00,0.00,30.0,28.3,00.0,38.7,31.8,27.5,0000.0,0008.92,0004.75,0004.13
2022-08-17 07:18:00,,0831.7,5.00,0.00,29.9,27.7,00.0,38.7,31.6,27.6,0000.0,0008.94,0004.75,0004.14
2022-08-17 07:19:00,,0831.7,5.00,0.00,29.9,27.5,00.0,38.6,31.5,27.5,0000.0,0008.96,0004.76,0004.14
2022-08-17 07:20:00,,0831.7,5.01,0.00,29.8,27.5,00.0,38.6,31.4,27.5,0000.0,0009.01,0004.76,0004.14
2022-08-17 07:21:00,,0831.7,4.99,0.00,29.7,27.6,00.0,38.6,31.4,27.7,0000.0,0008.96,0004.74,0004.15
2022-08-17 07:22:00,,0831.7,5.00,0.00,29.7,27.7,00.0,38.6,31.4,27.9,0000.0,0008.72,0004.73,0004.16
2022-08-17 07:23:00,,0831.7,5.00,0.00,29.7,27.9,00.0,38.5,31.4,27.7,0000.0,0008.46,0004.74,0004.15
2022-08-17 07:24:00,,0831.7,5.02,0.00,29.7,28.0,00.0,38.5,31.5,27.8,0000.0,0008.33,0004.70,0004.15
2022-08-17 07:25:00,,0831.7,5.00,0.00,29.7,28.1,00.0,38.5,31.5,28.8,0000.0,0008.26,0004.72,0004.15
2022-08-17 07:26:00,,0831.7,5.00,0.00,29.7,28.2,00.0,38.5,31.5,29.0,0000.0,0008.20,0004.71,0004.15
2022-08-17 07:27:00,,0831.7,5.00,0.00,29.7,28.3,00.0,38.5,31.5,28.1,0000.0,0008.09,0004.68,0004.15
2022-08-17 07:28:00,,0831.7,5.00,0.00,29.7,28.3,00.0,38.5,31.6,28.4,0000.0,0007.88,0004.65,0004.15
2022-08-17 07:29:00,,0831.7,5.00,0.00,29.7,28.4,00.0,38.5,31.5,28.6,0000.0,0008.00,0004.64,0004.16
2022-08-17 07:30:00,,0831.7,5.01,0.00,29.7,28.5,00.0,38.5,31.6,28.6,0000.0,0008.20,0004.63,0004.15
2022-08-17 07:31:00,,0831.8,5.00,0.00,29.7,28.5,00.0,38.5,31.6,28.9,0000.0,0008.19,0004.65,0004.16
2022-08-17 07:32:00,,0831.7,5.00,0.00,29.7,28.6,00.0,38.5,31.6,28.6,0000.0,0008.76,0004.66,0004.15
2022-08-17 07:33:00,,0831.8,5.00,0.00,29.8,28.6,00.0,38.5,31.7,28.3,0000.0,0008.84,0004.64,0004.14
2022-08-17 07:34:00,,0831.7,5.00,0.00,29.8,28.7,00.0,38.5,31.7,28.6,0000.0,0008.89,0004.66,0004.14
2022-08-17 07:35:00,,0831.7,5.00,0.00,29.8,28.7,00.0,38.5,31.7,28.4,0000.0,0008.95,0004.69,0004.15
2022-08-17 07:36:00,,0831.8,5.00,0.00,29.8,28.7,00.0,38.6,31.7,28.1,0000.0,0008.91,0004.64,0004.15
2022-08-17 07:37:00,,0831.8,5.00,0.00,29.8,28.7,00.0,38.6,31.8,28.2,0000.0,0008.90,0004.65,0004.15
2022-08-17 07:38:00,,0831.8,5.01,0.00,29.8,28.8,00.0,38.6,31.7,27.9,0000.0,0008.89,0004.64,0004.14
2022-08-17 07:39:00,,0831.7,5.00,0.00,29.9,28.8,00.0,38.6,31.7,28.2,0000.0,0008.95,0004.66,0004.13
2022-08-17 07:40:00,,0831.8,5.00,0.00,29.9,28.8,00.0,38.6,31.8,28.5,0000.0,0008.81,0004.67,0004.13
2022-08-17 07:41:00,,0831.8,4.99,0.00,29.9,28.8,00.0,38.6,31.8,28.7,0000.0,0008.55,0004.69,0004.14
2022-08-17 07:42:00,,0831.8,5.00,0.00,29.9,28.9,00.0,38.6,31.8,28.3,0000.0,0008.48,0004.67,0004.14
2022-08-17 07:43:00,,0831.7,5.00,0.00,29.9,28.9,00.0,38.7,31.9,27.9,0000.0,0007.89,0004.66,0004.15
2022-08-17 07:44:00,,0831.8,5.00,0.00,29.9,28.9,00.0,38.7,31.9,27.8,0000.0,0007.88,0004.69,0004.17
2022-08-17 07:45:00,,0831.8,5.00,0.00,30.0,28.9,00.0,38.7,31.9,28.2,0000.0,0007.89,0004.69,0004.17
2022-08-17 07:46:00,,0831.8,4.99,0.00,30.0,28.9,00.0,38.7,31.9,28.1,0000.0,0007.96,0004.73,0004.17
2022-08-17 07:47:00,,0831.8,5.01,0.00,30.0,29.0,00.0,38.7,31.9,27.7,0000.0,0007.98,0004.77,0004.18
2022-08-17 07:48:00,,0831.8,5.00,0.00,30.0,29.0,00.0,38.7,32.0,27.7,0000.0,0007.91,0004.76,0004.18
2022-08-17 07:49:00,,0831.7,5.00,0.00,30.0,29.0,00.0,38.7,31.9,27.6,0000.0,0007.83,0004.74,0004.18
2022-08-17 07:50:00,,0831.8,5.00,0.00,30.0,29.0,00.0,38.7,31.9,28.1,0000.0,0007.79,0004.73,0004.19
2022-08-17 07:51:00,,0831.8,5.01,0.00,30.0,29.0,00.0,38.8,32.0,28.0,0000.0,0008.13,0004.73,0004.20
2022-08-17 07:52:00,,0831.8,4.99,0.00,30.1,29.1,00.0,38.8,32.0,28.1,0000.0,0008.43,0004.70,0004.18
2022-08-17 07:53:00,,0831.8,5.01,0.00,30.1,29.0,00.0,38.8,32.0,28.3,0000.0,0008.50,0004.71,0004.19
2022-08-17 07:54:00,,0831.7,5.00,0.00,30.1,28.6,00.0,38.8,31.8,28.6,0000.0,0008.57,0004.71,0004.18
2022-08-17 07:55:00,,0831.7,5.01,0.00,30.0,27.9,00.0,38.7,31.7,28.2,0000.0,0008.52,0004.71,0004.19
2022-08-17 07:56:00,,0831.7,5.00,0.00,29.9,27.6,00.0,38.7,31.5,28.2,0000.0,0008.44,0004.71,0004.21
2022-08-17 07:57:00,,0831.7,5.00,0.00,29.8,27.5,00.0,38.6,31.4,29.3,0000.0,0008.77,0004.69,0004.22
2022-08-17 07:58:00,,0831.7,5.00,0.00,29.7,27.6,00.0,38.6,31.4,29.1,0000.0,0008.90,0004.66,0004.23
2022-08-17 07:59:00,,0831.7,5.00,0.00,29.7,27.7,00.0,38.6,31.4,28.4,0000.0,0009.23,0004.68,0004.25
